Weather History for Farmingdale, NY

Change the Weather History Date:

Monday, January 28, 2013

  Actual Average Record
Temperature  
Mean Temperature 38 °F -  
Max Temperature 54 °F 36 °F 60 °F (2002)
Min Temperature 21 °F 22 °F 5 °F (2003)
Degree Days  
Heating Degree Days 28    
Moisture  
Dew Point 28 °F    
Average Humidity 78    
Maximum Humidity 100    
Minimum Humidity 28    
Precipitation  
Precipitation 0.14 in - - ()
Sea Level Pressure  
Sea Level Pressure 30.22 in    
Wind  
Wind Speed 6 mph (SW)    
Max Wind Speed 15 mph    
Max Gust Speed 21 mph    
Visibility 4 miles    
Events Rain , Snow    
Averages and records for this station are not official NWS values.
T = Trace of Precipitation, MM = Missing Value Source: NWS Daily Summary

Daily Weather History Graph

Daily Weather History Graph

Search for Another Location

Airport:

Trip Planner

Search our weather history database for the weather conditions in past years. The results will help you decide how hot, cold, wet, or windy it might be!

Date:

Astronomy

Jan. 28, 2013 Rise Set
Actual Time 7:07 AM EST 5:06 PM EST
Civil Twilight 6:37 AM EST 5:35 PM EST
Nautical Twilight 6:04 AM EST 6:08 PM EST
Astronomical Twilight 5:32 AM EST 6:41 PM EST
Moon 6:59 PM EST (1/28) 7:30 AM EST (1/28)
Length of Visible Light 10h 58m
Length of Day
9h 59m
Full, 98% of the Moon is Illuminated
Jan 28
Full
Feb 3
Last Quarter
Feb 10
New
Feb 17
First Quarter
Feb 25
Full

Hourly Weather History & Observations

Time (EST) Temp. Windchill Dew Point Humidity Pressure Visibility Wind Dir Wind Speed Gust Speed Precip Events Conditions
12:53 AM 23.0 °F - 12.0 °F 63% 30.48 in 10.0 mi Calm Calm - N/A   Clear
1:53 AM 21.0 °F - 12.9 °F 71% 30.49 in 10.0 mi Calm Calm - N/A   Clear
2:53 AM 21.9 °F - 14.0 °F 72% 30.46 in 10.0 mi Calm Calm - N/A   Clear
3:53 AM 21.9 °F - 14.0 °F 72% 30.46 in 10.0 mi Calm Calm - N/A   Clear
4:53 AM 24.1 °F - 18.0 °F 77% 30.43 in 10.0 mi Calm Calm - N/A   Mostly Cloudy
5:53 AM 24.1 °F - 18.0 °F 77% 30.42 in 10.0 mi Calm Calm - N/A   Overcast
6:53 AM 28.0 °F - 19.0 °F 69% 30.43 in 10.0 mi Calm Calm - N/A   Overcast
7:53 AM 37.0 °F - 18.0 °F 46% 30.42 in 10.0 mi Calm Calm - N/A   Overcast
8:53 AM 35.1 °F - 19.0 °F 52% 30.42 in 8.0 mi Calm Calm - N/A   Overcast
9:53 AM 54.0 °F - 21.0 °F 28% 30.40 in 1.8 mi WSW 9.2 mph - 0.00 in   Unknown
9:56 AM 33.8 °F 26.4 °F 21.2 °F 60% 30.39 in 3.0 mi West 9.2 mph - 0.00 in Snow Light Snow
9:58 AM 33.8 °F 26.4 °F 21.2 °F 60% 30.39 in 5.0 mi WSW 9.2 mph - 0.00 in Snow Light Snow
10:53 AM 33.8 °F 25.8 °F 21.0 °F 60% 30.37 in 3.0 mi SW 10.4 mph - 0.00 in Snow Light Snow
11:11 AM 33.8 °F 25.8 °F 26.6 °F 75% 30.34 in 2.5 mi SSW 10.4 mph - 0.00 in Snow Light Snow
11:17 AM 33.8 °F 26.4 °F 26.6 °F 75% 30.34 in 2.5 mi SW 9.2 mph - 0.00 in Snow Light Snow
11:40 AM 33.8 °F 25.8 °F 26.6 °F 75% 30.32 in 3.0 mi SW 10.4 mph - 0.00 in Snow Light Snow
11:44 AM 33.8 °F 25.8 °F 26.6 °F 75% 30.32 in 2.5 mi SW 10.4 mph - 0.00 in Snow Light Snow
11:53 AM 33.8 °F 26.4 °F 27.0 °F 76% 30.31 in 2.5 mi SW 9.2 mph - 0.00 in Snow Light Snow
12:11 PM 50.0 °F - 28.4 °F 43% 30.30 in 2.5 mi SW 9.2 mph - 0.00 in   Unknown
12:27 PM 50.0 °F - 30.2 °F 47% 30.28 in 3.0 mi SSW 12.7 mph - 0.00 in   Unknown
12:39 PM 50.0 °F - 30.2 °F 47% 30.26 in 4.0 mi SSW 10.4 mph - 0.00 in   Unknown
12:53 PM 50.0 °F - 30.0 °F 46% 30.25 in 3.0 mi SSW 12.7 mph 20.7 mph 0.00 in   Unknown
1:53 PM 33.8 °F 24.3 °F 31.1 °F 90% 30.19 in 4.0 mi SSW 13.8 mph - 0.01 in Snow Light Snow
2:05 PM 48.2 °F - 30.2 °F 50% 30.18 in 4.0 mi SSW 15.0 mph - 0.00 in   Unknown
2:31 PM 35.6 °F 27.1 °F 32.0 °F 87% 30.16 in 3.0 mi SSW 12.7 mph - 0.01 in Snow Light Snow
2:53 PM 35.6 °F 27.1 °F 31.1 °F 84% 30.16 in 3.0 mi SW 12.7 mph - 0.01 in Snow Light Snow
3:06 PM 35.6 °F 26.6 °F 32.0 °F 87% 30.13 in 2.5 mi SSW 13.8 mph - 0.02 in   Overcast
3:29 PM 35.6 °F 27.1 °F 33.8 °F 93% 30.13 in 2.0 mi SW 12.7 mph - 0.03 in   Overcast
3:39 PM 35.6 °F 28.0 °F 33.8 °F 93% 30.12 in 2.0 mi SW 10.4 mph - 0.04 in   Overcast
3:53 PM 35.1 °F 26.4 °F 33.1 °F 92% 30.13 in 2.0 mi SW 12.7 mph - 0.07 in   Overcast
3:55 PM 35.6 °F 28.0 °F 33.8 °F 93% 30.12 in 1.8 mi SW 10.4 mph - N/A   Overcast
4:05 PM 35.6 °F 27.1 °F 33.8 °F 93% 30.12 in 1.8 mi SW 12.7 mph - N/A   Overcast
4:16 PM 35.6 °F 27.1 °F 33.8 °F 93% 30.11 in 1.8 mi SW 12.7 mph - N/A Rain Rain
4:53 PM 35.1 °F 26.9 °F 33.1 °F 92% 30.10 in 1.8 mi SW 11.5 mph - N/A Rain Light Rain
5:00 PM 33.8 °F 25.8 °F 33.8 °F 100% 30.09 in 1.8 mi SW 10.4 mph - 0.01 in Rain Rain
5:09 PM 33.8 °F 27.7 °F 33.8 °F 100% 30.09 in 1.8 mi SW 6.9 mph - 0.02 in Rain Light Rain
5:32 PM 33.8 °F 26.4 °F 33.8 °F 100% 30.08 in 1.8 mi SW 9.2 mph - 0.02 in Rain Light Rain
5:41 PM 33.8 °F 27.0 °F 32.0 °F 93% 30.08 in 1.8 mi SW 8.1 mph - 0.02 in   Overcast
5:53 PM 34.0 °F 28.0 °F 32.0 °F 92% 30.08 in 1.8 mi SW 6.9 mph - 0.02 in   Overcast
6:53 PM 34.0 °F 28.8 °F 32.0 °F 92% 30.07 in 1.8 mi WSW 5.8 mph - 0.00 in Rain Light Rain
7:53 PM 34.0 °F 28.0 °F 33.1 °F 96% 30.06 in 1.8 mi WSW 6.9 mph - 0.03 in Rain Rain
8:53 PM 34.0 °F 28.8 °F 33.1 °F 96% 30.05 in 1.8 mi West 5.8 mph - 0.00 in   Overcast
9:12 PM 33.8 °F 27.0 °F 33.8 °F 100% 30.03 in 2.5 mi WSW 8.1 mph - N/A   Overcast
9:53 PM 34.0 °F 27.2 °F 33.1 °F 96% 30.02 in 2.5 mi West 8.1 mph - N/A   Overcast
10:10 PM 35.6 °F 29.2 °F 33.8 °F 93% 30.02 in 2.5 mi West 8.1 mph - N/A   Overcast
10:53 PM 35.1 °F 28.6 °F 33.1 °F 92% 30.01 in 2.0 mi WSW 8.1 mph - N/A   Overcast
11:01 PM 35.6 °F 29.9 °F 33.8 °F 93% 30.01 in 3.0 mi WSW 6.9 mph - N/A   Overcast
11:28 PM 35.6 °F 29.2 °F 33.8 °F 93% 30.01 in 3.0 mi WSW 8.1 mph - N/A   Overcast
11:53 PM 35.1 °F 30.1 °F 33.1 °F 92% 30.01 in 3.0 mi WSW 5.8 mph - N/A   Overcast